Newton, IA

4:46 PM CDT on June 25, 2017 (GMT -0500)
Newton Municipal

Weather History for KTNU - February, 2013

Change the Weather History Date:

Tuesday, February 26, 2013

  Actual Average Record
Temperature  
Mean Temperature 30 °F -  
Max Temperature 32 °F 40 °F 63 °F (1988)
Min Temperature 28 °F 20 °F -7 °F (2015)
Degree Days  
Heating Degree Days 35    
Moisture  
Dew Point 29 °F    
Average Humidity 92    
Maximum Humidity 100    
Minimum Humidity 80    
Precipitation  
Precipitation 0.01 in - - ()
Sea Level Pressure  
Sea Level Pressure 29.74 in    
Wind  
Wind Speed 17 mph (NNE)    
Max Wind Speed 28 mph    
Max Gust Speed 50 mph    
Visibility 3 miles    
Events Rain , Snow    
Averages and records for this station are not official NWS values.
T = Trace of Precipitation, MM = Missing Value Source: NWS Daily Summary

Daily Weather History Graph

Daily Weather History Graph

Search for Another Location

Airport or City:

Trip Planner

Search our weather history database for the weather conditions in past years. The results will help you decide how hot, cold, wet, or windy it might be!

Date:

Astronomy

Feb. 26, 2013 Rise Set
Actual Time 6:51 AM CST 5:59 PM CST
Civil Twilight 6:23 AM CST 6:27 PM CST
Nautical Twilight 5:50 AM CST 6:59 PM CST
Astronomical Twilight 5:18 AM CST 7:31 PM CST
Moon 7:18 PM CST (2/26) 6:52 AM CST (2/26)
Length of Visible Light 12h 04m
Length of Day
11h 08m
Full, 99% of the Moon is Illuminated
Feb 26
Full
Mar 4
Last Quarter
Mar 11
New
Mar 19
First Quarter
Mar 27
Full

Hourly Weather History & Observations

Time (CST) Temp. Windchill Dew Point Humidity Pressure Visibility Wind Dir Wind Speed Gust Speed Precip Events Conditions
12:15 AM 32.0 °F 24.2 °F 28.4 °F 87% 29.88 in 6.0 mi NNE 9.2 mph - N/A   Overcast
12:35 AM 32.0 °F 24.2 °F 28.4 °F 87% 29.86 in 7.0 mi NE 9.2 mph - N/A   Overcast
12:55 AM 32.0 °F 23.6 °F 28.4 °F 87% 29.86 in 7.0 mi NNE 10.4 mph - N/A   Overcast
1:15 AM 32.0 °F 23.0 °F 28.4 °F 87% 29.84 in 7.0 mi NNE 11.5 mph - N/A   Overcast
1:35 AM 32.0 °F 21.6 °F 28.4 °F 87% 29.83 in 7.0 mi NNE 15.0 mph - N/A   Overcast
1:55 AM 32.0 °F 22.1 °F 28.4 °F 87% 29.83 in 6.0 mi NNE 13.8 mph - N/A   Overcast
2:15 AM 32.0 °F 21.6 °F 26.6 °F 80% 29.82 in 6.0 mi NNE 15.0 mph - N/A   Haze
2:35 AM 32.0 °F 22.1 °F 28.4 °F 87% 29.81 in 6.0 mi NNE 13.8 mph 20.7 mph N/A   Haze
2:55 AM 32.0 °F 21.6 °F 26.6 °F 80% 29.80 in 6.0 mi NE 15.0 mph 21.9 mph N/A   Haze
3:15 AM 32.0 °F 21.2 °F 26.6 °F 80% 29.79 in 6.0 mi NNE 16.1 mph - N/A   Haze
3:35 AM 32.0 °F 21.2 °F 26.6 °F 80% 29.78 in 6.0 mi NNE 16.1 mph - N/A   Haze
3:55 AM 32.0 °F 20.5 °F 26.6 °F 80% 29.77 in 6.0 mi NNE 18.4 mph - N/A   Haze
4:15 AM 32.0 °F 21.2 °F 26.6 °F 80% 29.77 in 6.0 mi NNE 16.1 mph 21.9 mph N/A   Haze
4:35 AM 32.0 °F 22.1 °F 26.6 °F 80% 29.77 in 7.0 mi NE 13.8 mph 21.9 mph N/A   Overcast
4:55 AM 32.0 °F 21.6 °F 26.6 °F 80% 29.77 in 7.0 mi NE 15.0 mph 20.7 mph N/A   Overcast
5:15 AM 32.0 °F 22.1 °F 26.6 °F 80% 29.76 in 2.0 mi NE 13.8 mph 20.7 mph N/A   Overcast
5:35 AM 30.2 °F 18.5 °F 28.4 °F 93% 29.75 in 0.5 mi NE 17.3 mph 25.3 mph N/A Snow Light Snow
5:55 AM 30.2 °F - 28.4 °F 93% 29.75 in 0.5 mi North - - N/A Snow Light Snow
6:15 AM 30.2 °F - 28.4 °F 93% 29.75 in 0.5 mi North - - N/A Snow Light Snow
6:35 AM 30.2 °F 18.9 °F 28.4 °F 93% 29.76 in 0.2 mi NNE 16.1 mph 23.0 mph N/A Snow Snow
6:55 AM 28.4 °F - 28.4 °F 100% 29.75 in 0.2 mi North - - 0.01 in Snow Light Snow
7:15 AM 28.4 °F 15.4 °F 28.4 °F 100% 29.75 in 0.2 mi North 19.6 mph - N/A   Overcast
7:35 AM 28.4 °F 15.4 °F 28.4 °F 100% 29.75 in 1.0 mi NNE 19.6 mph - N/A   Overcast
7:55 AM 30.2 °F 18.1 °F 28.4 °F 93% 29.76 in 2.0 mi NNE 18.4 mph - N/A Rain Light Freezing Rain
8:15 AM 30.2 °F 16.8 °F 28.4 °F 93% 29.76 in 4.0 mi NNE 23.0 mph - N/A   Light Freezing Rain
8:35 AM 30.2 °F 16.8 °F 26.6 °F 86% 29.75 in 5.0 mi NNE 23.0 mph 29.9 mph N/A   Light Freezing Rain
8:55 AM 30.2 °F 16.5 °F 28.4 °F 93% 29.72 in - North 24.2 mph 31.1 mph N/A Rain Light Freezing Rain
9:15 AM 30.2 °F 16.5 °F 28.4 °F 93% 29.73 in 2.0 mi NNE 24.2 mph 31.1 mph N/A Rain Light Freezing Rain
9:35 AM 30.2 °F 15.9 °F 28.4 °F 93% 29.72 in 4.0 mi NNE 26.5 mph 32.2 mph N/A   Light Freezing Rain
9:55 AM 30.2 °F 15.7 °F 28.4 °F 93% 29.69 in 4.0 mi North 27.6 mph - N/A Rain Light Freezing Rain
10:15 AM 30.2 °F 15.7 °F 28.4 °F 93% 29.69 in 3.0 mi NNE 27.6 mph 35.7 mph N/A   Mostly Cloudy
10:35 AM 32.0 °F 18.6 °F 28.4 °F 87% 29.69 in 4.0 mi NNE 25.3 mph 35.7 mph N/A   Partly Cloudy
10:55 AM 32.0 °F 18.1 °F 28.4 °F 87% 29.68 in 5.0 mi NNE 27.6 mph 38.0 mph N/A   Clear
11:15 AM 32.0 °F 18.9 °F 28.4 °F 87% 29.68 in 5.0 mi NNE 24.2 mph 33.4 mph N/A   Scattered Clouds
11:35 AM 32.0 °F 18.9 °F 28.4 °F 87% 29.68 in 5.0 mi NNE 24.2 mph 34.5 mph N/A   Partly Cloudy
11:55 AM 32.0 °F 19.2 °F 28.4 °F 87% 29.68 in 8.0 mi NNE 23.0 mph 29.9 mph N/A   Mostly Cloudy
12:15 PM 32.0 °F 18.6 °F 28.4 °F 87% 29.68 in 9.0 mi NNE 25.3 mph 33.4 mph N/A   Overcast
12:35 PM 32.0 °F 19.2 °F 28.4 °F 87% 29.68 in 8.0 mi NNE 23.0 mph 33.4 mph N/A   Mostly Cloudy
12:55 PM 32.0 °F 19.2 °F 28.4 °F 87% 29.67 in 9.0 mi NNE 23.0 mph 31.1 mph N/A   Mostly Cloudy
1:15 PM 32.0 °F 19.8 °F 28.4 °F 87% 29.67 in 8.0 mi NNE 20.7 mph 29.9 mph N/A   Overcast
1:35 PM 32.0 °F 19.2 °F 28.4 °F 87% 29.67 in 8.0 mi NNE 23.0 mph 29.9 mph N/A   Overcast
1:55 PM 32.0 °F 18.9 °F 28.4 °F 87% 29.66 in 7.0 mi NNE 24.2 mph 32.2 mph N/A   Overcast
2:15 PM 32.0 °F 19.2 °F 28.4 °F 87% 29.66 in 8.0 mi NNE 23.0 mph 29.9 mph N/A   Overcast
2:35 PM 32.0 °F 19.2 °F 28.4 °F 87% 29.65 in 0.5 mi NNE 23.0 mph 33.4 mph N/A   Overcast
2:55 PM 32.0 °F 20.5 °F 30.2 °F 93% 29.66 in 0.5 mi North 18.4 mph 29.9 mph N/A Rain Light Rain
3:15 PM 32.0 °F 19.8 °F 30.2 °F 93% 29.67 in 0.5 mi NNE 20.7 mph 27.6 mph N/A Rain Rain
3:35 PM 32.0 °F 19.5 °F 30.2 °F 93% 29.68 in 0.8 mi NNE 21.9 mph 28.8 mph N/A   Mostly Cloudy
3:55 PM 30.2 °F 17.1 °F 30.2 °F 100% 29.68 in 1.0 mi North 21.9 mph 28.8 mph N/A   Scattered Clouds
4:15 PM 30.2 °F 17.1 °F 30.2 °F 100% 29.69 in 0.5 mi North 21.9 mph - N/A   Overcast
4:35 PM 30.2 °F 17.4 °F 30.2 °F 100% 29.69 in 0.2 mi North 20.7 mph - N/A   Overcast
4:55 PM 30.2 °F 17.1 °F 30.2 °F 100% 29.69 in 0.5 mi North 21.9 mph 27.6 mph N/A   Mostly Cloudy
5:15 PM 30.2 °F 17.4 °F 30.2 °F 100% 29.69 in 0.2 mi North 20.7 mph 49.5 mph N/A   Scattered Clouds
5:35 PM 30.2 °F 17.1 °F 30.2 °F 100% 29.70 in 0.5 mi North 21.9 mph 29.9 mph N/A   Mostly Cloudy
5:55 PM 30.2 °F 17.4 °F 30.2 °F 100% 29.71 in 0.5 mi North 20.7 mph - N/A   Mostly Cloudy
6:15 PM 30.2 °F 17.8 °F 30.2 °F 100% 29.71 in 0.5 mi North 19.6 mph 25.3 mph N/A   Overcast
6:35 PM 30.2 °F 17.8 °F 30.2 °F 100% 29.72 in 1.5 mi North 19.6 mph - N/A   Overcast
6:55 PM 30.2 °F 18.5 °F 30.2 °F 100% 29.73 in 2.0 mi North 17.3 mph - N/A   Overcast
7:15 PM 32.0 °F 21.6 °F 30.2 °F 93% 29.74 in 1.2 mi North 15.0 mph 21.9 mph N/A Snow Light Snow
7:35 PM 32.0 °F 22.5 °F 30.2 °F 93% 29.75 in 1.2 mi North 12.7 mph - N/A Snow Light Snow
7:55 PM 32.0 °F 22.1 °F 30.2 °F 93% 29.75 in 1.0 mi North 13.8 mph - N/A Snow Light Snow
8:15 PM 30.2 °F 19.3 °F 30.2 °F 100% 29.75 in 0.8 mi North 15.0 mph - N/A Snow Light Snow
8:35 PM 30.2 °F 18.5 °F 30.2 °F 100% 29.75 in 0.8 mi North 17.3 mph - N/A Snow Light Snow
8:55 PM 30.2 °F 18.9 °F 30.2 °F 100% 29.76 in 0.8 mi North 16.1 mph 38.0 mph N/A Snow Light Snow
9:15 PM 30.2 °F 18.9 °F 30.2 °F 100% 29.76 in 0.8 mi North 16.1 mph - N/A   Overcast
9:35 PM 32.0 °F 21.2 °F 30.2 °F 93% 29.75 in 1.2 mi North 16.1 mph - N/A   Overcast
9:55 PM 32.0 °F 23.0 °F 30.2 °F 93% 29.76 in 1.8 mi North 11.5 mph 18.4 mph N/A   Overcast
10:15 PM 30.2 °F 19.8 °F 30.2 °F 100% 29.75 in 1.8 mi North 13.8 mph - N/A Snow Light Snow
10:55 PM 30.2 °F 20.2 °F 30.2 °F 100% 29.76 in 2.0 mi NNW 12.7 mph - N/A Snow Light Snow
11:15 PM 30.2 °F 19.8 °F 30.2 °F 100% 29.76 in 2.0 mi NNW 13.8 mph - N/A Snow Light Snow
11:35 PM 30.2 °F 19.3 °F 28.4 °F 93% 29.76 in 1.8 mi NNW 15.0 mph - N/A Snow Light Snow
11:55 PM 30.2 °F 18.9 °F 28.4 °F 93% 29.75 in 1.2 mi NNW 16.1 mph - N/A Snow Light Snow